Year,Month,Day,Hour,Minute,Value (Times are PST for insolation in W/m^2)
2010,04,13,00,00,0.00
2010,04,13,00,01,0.00
2010,04,13,00,02,0.00
2010,04,13,00,03,0.00
2010,04,13,00,04,0.00
2010,04,13,00,05,0.00
2010,04,13,00,06,0.00
2010,04,13,00,07,0.00
2010,04,13,00,08,0.00
2010,04,13,00,09,0.00
2010,04,13,00,10,0.00
2010,04,13,00,11,0.00
2010,04,13,00,12,0.00
2010,04,13,00,13,0.00
2010,04,13,00,14,0.00
2010,04,13,00,15,0.00
2010,04,13,00,16,0.00
2010,04,13,00,17,0.00
2010,04,13,00,18,0.00
2010,04,13,00,19,0.00
2010,04,13,00,20,0.00
2010,04,13,00,21,0.00
2010,04,13,00,22,0.00
2010,04,13,00,23,0.00
2010,04,13,00,24,0.00
2010,04,13,00,25,0.00
2010,04,13,00,26,0.00
2010,04,13,00,27,0.00
2010,04,13,00,28,0.00
2010,04,13,00,29,0.00
2010,04,13,00,30,0.00
2010,04,13,00,31,0.00
2010,04,13,00,32,0.00
2010,04,13,00,33,0.00
2010,04,13,00,34,0.00
2010,04,13,00,35,0.00
2010,04,13,00,36,0.00
2010,04,13,00,37,0.00
2010,04,13,00,38,0.00
2010,04,13,00,39,0.00
2010,04,13,00,40,0.00
2010,04,13,00,41,0.00
2010,04,13,00,42,0.00
2010,04,13,00,43,0.00
2010,04,13,00,44,0.00
2010,04,13,00,45,0.00
2010,04,13,00,46,0.00
2010,04,13,00,47,0.00
2010,04,13,00,48,0.00
2010,04,13,00,49,0.00
2010,04,13,00,50,0.00
2010,04,13,00,51,0.00
2010,04,13,00,52,0.00
2010,04,13,00,53,0.00
2010,04,13,00,54,0.00
2010,04,13,00,55,0.00
2010,04,13,00,56,0.00
2010,04,13,00,57,0.00
2010,04,13,00,58,0.00
2010,04,13,00,59,0.00
2010,04,13,01,00,0.00
2010,04,13,01,01,0.00
2010,04,13,01,02,0.00
2010,04,13,01,03,0.00
2010,04,13,01,04,0.00
2010,04,13,01,05,0.00
2010,04,13,01,06,0.00
2010,04,13,01,07,0.00
2010,04,13,01,08,0.00
2010,04,13,01,09,0.00
2010,04,13,01,10,0.00
2010,04,13,01,11,0.00
2010,04,13,01,12,0.00
2010,04,13,01,13,0.00
2010,04,13,01,14,0.00
2010,04,13,01,15,0.00
2010,04,13,01,16,0.00
2010,04,13,01,17,0.00
2010,04,13,01,18,0.00
2010,04,13,01,19,0.00
2010,04,13,01,20,0.00
2010,04,13,01,21,0.00
2010,04,13,01,22,0.00
2010,04,13,01,23,0.00
2010,04,13,01,24,0.00
2010,04,13,01,25,0.00
2010,04,13,01,26,0.00
2010,04,13,01,27,0.00
2010,04,13,01,28,0.00
2010,04,13,01,29,0.00
2010,04,13,01,30,0.00
2010,04,13,01,31,0.00
2010,04,13,01,32,0.00
2010,04,13,01,33,0.00
2010,04,13,01,34,0.00
2010,04,13,01,35,0.00
2010,04,13,01,36,0.00
2010,04,13,01,37,0.00
2010,04,13,01,38,0.00
2010,04,13,01,39,0.00
2010,04,13,01,40,0.00
2010,04,13,01,41,0.00
2010,04,13,01,42,0.00
2010,04,13,01,43,0.00
2010,04,13,01,44,0.00
2010,04,13,01,45,0.00
2010,04,13,01,46,0.00
2010,04,13,01,47,0.00
2010,04,13,01,48,0.00
2010,04,13,01,49,0.00
2010,04,13,01,50,0.00
2010,04,13,01,51,0.00
2010,04,13,01,52,0.00
2010,04,13,01,53,0.00
2010,04,13,01,54,0.00
2010,04,13,01,55,0.00
2010,04,13,01,56,0.00
2010,04,13,01,57,0.00
2010,04,13,01,58,0.00
2010,04,13,01,59,0.00
2010,04,13,02,00,0.00
2010,04,13,02,01,0.00
2010,04,13,02,02,0.00
2010,04,13,02,03,0.00
2010,04,13,02,04,0.00
2010,04,13,02,05,0.00
2010,04,13,02,06,0.00
2010,04,13,02,07,0.00
2010,04,13,02,08,0.00
2010,04,13,02,09,0.00
2010,04,13,02,10,0.00
2010,04,13,02,11,0.00
2010,04,13,02,12,0.00
2010,04,13,02,13,0.00
2010,04,13,02,14,0.00
2010,04,13,02,15,0.00
2010,04,13,02,16,0.00
2010,04,13,02,17,0.00
2010,04,13,02,18,0.00
2010,04,13,02,19,0.00
2010,04,13,02,20,0.00
2010,04,13,02,21,0.00
2010,04,13,02,22,0.00
2010,04,13,02,23,0.00
2010,04,13,02,24,0.00
2010,04,13,02,25,0.00
2010,04,13,02,26,0.00
2010,04,13,02,27,0.00
2010,04,13,02,28,0.00
2010,04,13,02,29,0.00
2010,04,13,02,30,0.00
2010,04,13,02,31,0.00
2010,04,13,02,32,0.00
2010,04,13,02,33,0.00
2010,04,13,02,34,0.00
2010,04,13,02,35,0.00
2010,04,13,02,36,0.00
2010,04,13,02,37,0.00
2010,04,13,02,38,0.00
2010,04,13,02,39,0.00
2010,04,13,02,40,0.00
2010,04,13,02,41,0.00
2010,04,13,02,42,0.00
2010,04,13,02,43,0.00
2010,04,13,02,44,0.00
2010,04,13,02,45,0.00
2010,04,13,02,46,0.00
2010,04,13,02,47,0.00
2010,04,13,02,48,0.00
2010,04,13,02,49,0.00
2010,04,13,02,50,0.00
2010,04,13,02,51,0.00
2010,04,13,02,52,0.00
2010,04,13,02,53,0.00
2010,04,13,02,54,0.00
2010,04,13,02,55,0.00
2010,04,13,02,56,0.00
2010,04,13,02,57,0.00
2010,04,13,02,58,0.00
2010,04,13,02,59,0.00
2010,04,13,03,00,0.00
2010,04,13,03,01,0.00
2010,04,13,03,02,0.00
2010,04,13,03,03,0.00
2010,04,13,03,04,0.00
2010,04,13,03,05,0.00
2010,04,13,03,06,0.00
2010,04,13,03,07,0.00
2010,04,13,03,08,0.00
2010,04,13,03,09,0.00
2010,04,13,03,10,0.00
2010,04,13,03,11,0.00
2010,04,13,03,12,0.00
2010,04,13,03,13,0.00
2010,04,13,03,14,0.00
2010,04,13,03,15,0.00
2010,04,13,03,16,0.00
2010,04,13,03,17,0.00
2010,04,13,03,18,0.00
2010,04,13,03,19,0.00
2010,04,13,03,20,0.00
2010,04,13,03,21,0.00
2010,04,13,03,22,0.00
2010,04,13,03,23,0.00
2010,04,13,03,24,0.00
2010,04,13,03,25,0.00
2010,04,13,03,26,0.00
2010,04,13,03,27,0.00
2010,04,13,03,28,0.00
2010,04,13,03,29,0.00
2010,04,13,03,30,0.00
2010,04,13,03,31,0.00
2010,04,13,03,32,0.00
2010,04,13,03,33,0.00
2010,04,13,03,34,0.00
2010,04,13,03,35,0.00
2010,04,13,03,36,0.00
2010,04,13,03,37,0.00
2010,04,13,03,38,0.00
2010,04,13,03,39,0.00
2010,04,13,03,40,0.00
2010,04,13,03,41,0.00
2010,04,13,03,42,0.00
2010,04,13,03,43,0.00
2010,04,13,03,44,0.00
2010,04,13,03,45,0.00
2010,04,13,03,46,0.00
2010,04,13,03,47,0.00
2010,04,13,03,48,0.00
2010,04,13,03,49,0.00
2010,04,13,03,50,0.00
2010,04,13,03,51,0.00
2010,04,13,03,52,0.00
2010,04,13,03,53,0.00
2010,04,13,03,54,0.00
2010,04,13,03,55,0.00
2010,04,13,03,56,0.00
2010,04,13,03,57,0.00
2010,04,13,03,58,0.00
2010,04,13,03,59,0.00
2010,04,13,04,00,0.00
2010,04,13,04,01,0.00
2010,04,13,04,02,0.00
2010,04,13,04,03,0.00
2010,04,13,04,04,0.00
2010,04,13,04,05,0.00
2010,04,13,04,06,0.00
2010,04,13,04,07,0.00
2010,04,13,04,08,0.00
2010,04,13,04,09,0.00
2010,04,13,04,10,0.00
2010,04,13,04,11,0.00
2010,04,13,04,12,0.00
2010,04,13,04,13,0.00
2010,04,13,04,14,0.00
2010,04,13,04,15,0.00
2010,04,13,04,16,0.00
2010,04,13,04,17,0.00
2010,04,13,04,18,0.00
2010,04,13,04,19,0.00
2010,04,13,04,20,0.00
2010,04,13,04,21,0.00
2010,04,13,04,22,0.00
2010,04,13,04,23,0.00
2010,04,13,04,24,0.00
2010,04,13,04,25,0.00
2010,04,13,04,26,0.00
2010,04,13,04,27,0.00
2010,04,13,04,28,0.00
2010,04,13,04,29,0.00
2010,04,13,04,30,0.00
2010,04,13,04,31,0.00
2010,04,13,04,32,0.00
2010,04,13,04,33,0.00
2010,04,13,04,34,0.00
2010,04,13,04,35,0.00
2010,04,13,04,36,0.00
2010,04,13,04,37,0.00
2010,04,13,04,38,0.00
2010,04,13,04,39,0.00
2010,04,13,04,40,0.00
2010,04,13,04,41,0.00
2010,04,13,04,42,0.00
2010,04,13,04,43,0.00
2010,04,13,04,44,0.00
2010,04,13,04,45,0.00
2010,04,13,04,46,0.00
2010,04,13,04,47,0.00
2010,04,13,04,48,0.00
2010,04,13,04,49,0.00
2010,04,13,04,50,0.00
2010,04,13,04,51,0.00
2010,04,13,04,52,0.00
2010,04,13,04,53,0.00
2010,04,13,04,54,0.00
2010,04,13,04,55,0.00
2010,04,13,04,56,0.00
2010,04,13,04,57,0.00
2010,04,13,04,58,0.00
2010,04,13,04,59,0.00
2010,04,13,05,00,0.00
2010,04,13,05,01,0.00
2010,04,13,05,02,0.00
2010,04,13,05,03,0.00
2010,04,13,05,04,0.00
2010,04,13,05,05,0.00
2010,04,13,05,06,0.00
2010,04,13,05,07,0.00
2010,04,13,05,08,0.00
2010,04,13,05,09,0.00
2010,04,13,05,10,0.00
2010,04,13,05,11,0.00
2010,04,13,05,12,0.00
2010,04,13,05,13,0.00
2010,04,13,05,14,0.00
2010,04,13,05,15,0.00
2010,04,13,05,16,0.00
2010,04,13,05,17,0.00
2010,04,13,05,18,0.00
2010,04,13,05,19,0.00
2010,04,13,05,20,0.00
2010,04,13,05,21,0.00
2010,04,13,05,22,0.00
2010,04,13,05,23,0.00
2010,04,13,05,24,0.00
2010,04,13,05,25,0.00
2010,04,13,05,26,0.00
2010,04,13,05,27,0.00
2010,04,13,05,28,0.00
2010,04,13,05,29,0.00
2010,04,13,05,30,0.00
2010,04,13,05,31,0.00
2010,04,13,05,32,0.00
2010,04,13,05,33,0.00
2010,04,13,05,34,0.00
2010,04,13,05,35,0.00
2010,04,13,05,36,0.00
2010,04,13,05,37,0.00
2010,04,13,05,38,0.00
2010,04,13,05,39,0.00
2010,04,13,05,40,0.00
2010,04,13,05,41,0.00
2010,04,13,05,42,0.00
2010,04,13,05,43,0.00
2010,04,13,05,44,0.00
2010,04,13,05,45,0.00
2010,04,13,05,46,0.00
2010,04,13,05,47,0.00
2010,04,13,05,48,0.00
2010,04,13,05,49,0.00
2010,04,13,05,50,0.00
2010,04,13,05,51,0.00
2010,04,13,05,52,0.00
2010,04,13,05,53,0.00
2010,04,13,05,54,0.00
2010,04,13,05,55,0.00
2010,04,13,05,56,0.00
2010,04,13,05,57,0.00
2010,04,13,05,58,0.00
2010,04,13,05,59,0.00
2010,04,13,06,00,0.00
2010,04,13,06,01,0.00
2010,04,13,06,02,0.00
2010,04,13,06,03,0.00
2010,04,13,06,04,0.00
2010,04,13,06,05,0.00
2010,04,13,06,06,0.00
2010,04,13,06,07,0.00
2010,04,13,06,08,0.00
2010,04,13,06,09,0.00
2010,04,13,06,10,0.00
2010,04,13,06,11,0.00
2010,04,13,06,12,0.00
2010,04,13,06,13,0.00
2010,04,13,06,14,0.00
2010,04,13,06,15,0.00
2010,04,13,06,16,0.00
2010,04,13,06,17,0.00
2010,04,13,06,18,0.00
2010,04,13,06,19,0.00
2010,04,13,06,20,0.00
2010,04,13,06,21,0.00
2010,04,13,06,22,0.00
2010,04,13,06,23,0.00
2010,04,13,06,24,0.00
2010,04,13,06,25,0.00
2010,04,13,06,26,0.00
2010,04,13,06,27,0.00
2010,04,13,06,28,0.00
2010,04,13,06,29,0.00
2010,04,13,06,30,0.00
2010,04,13,06,31,0.00
2010,04,13,06,32,0.00
2010,04,13,06,33,0.00
2010,04,13,06,34,0.00
2010,04,13,06,35,0.00
2010,04,13,06,36,1.80
2010,04,13,06,37,5.00
2010,04,13,06,38,5.00
2010,04,13,06,39,5.00
2010,04,13,06,40,7.00
2010,04,13,06,41,7.00
2010,04,13,06,42,7.00
2010,04,13,06,43,8.10
2010,04,13,06,44,9.00
2010,04,13,06,45,9.00
2010,04,13,06,46,9.30
2010,04,13,06,47,11.00
2010,04,13,06,48,11.00
2010,04,13,06,49,11.00
2010,04,13,06,50,11.00
2010,04,13,06,51,11.90
2010,04,13,06,52,12.00
2010,04,13,06,53,12.00
2010,04,13,06,54,12.00
2010,04,13,06,55,13.20
2010,04,13,06,56,14.00
2010,04,13,06,57,14.10
2010,04,13,06,58,16.00
2010,04,13,06,59,16.00
2010,04,13,07,00,17.00
2010,04,13,07,01,18.00
2010,04,13,07,02,18.00
2010,04,13,07,03,19.00
2010,04,13,07,04,19.00
2010,04,13,07,05,19.70
2010,04,13,07,06,21.00
2010,04,13,07,07,22.30
2010,04,13,07,08,23.00
2010,04,13,07,09,25.00
2010,04,13,07,10,25.00
2010,04,13,07,11,25.40
2010,04,13,07,12,26.00
2010,04,13,07,13,27.30
2010,04,13,07,14,28.00
2010,04,13,07,15,28.30
2010,04,13,07,16,30.00
2010,04,13,07,17,30.80
2010,04,13,07,18,32.00
2010,04,13,07,19,32.70
2010,04,13,07,20,33.00
2010,04,13,07,21,35.30
2010,04,13,07,22,37.60
2010,04,13,07,23,39.40
2010,04,13,07,24,40.00
2010,04,13,07,25,41.50
2010,04,13,07,26,43.80
2010,04,13,07,27,44.30
2010,04,13,07,28,46.30
2010,04,13,07,29,48.00
2010,04,13,07,30,49.00
2010,04,13,07,31,50.50
2010,04,13,07,32,52.80
2010,04,13,07,33,53.20
2010,04,13,07,34,54.00
2010,04,13,07,35,54.90
2010,04,13,07,36,57.20
2010,04,13,07,37,59.50
2010,04,13,07,38,62.00
2010,04,13,07,39,63.40
2010,04,13,07,40,66.40
2010,04,13,07,41,69.50
2010,04,13,07,42,72.70
2010,04,13,07,43,75.60
2010,04,13,07,44,79.10
2010,04,13,07,45,83.80
2010,04,13,07,46,87.50
2010,04,13,07,47,90.60
2010,04,13,07,48,92.40
2010,04,13,07,49,93.00
2010,04,13,07,50,94.90
2010,04,13,07,51,95.00
2010,04,13,07,52,95.00
2010,04,13,07,53,95.00
2010,04,13,07,54,95.00
2010,04,13,07,55,95.00
2010,04,13,07,56,95.00
2010,04,13,07,57,95.00
2010,04,13,07,58,95.70
2010,04,13,07,59,97.50
2010,04,13,08,00,99.50
2010,04,13,08,01,101.70
2010,04,13,08,02,104.10
2010,04,13,08,03,105.60
2010,04,13,08,04,108.70
2010,04,13,08,05,112.10
2010,04,13,08,06,115.10
2010,04,13,08,07,119.60
2010,04,13,08,08,128.50
2010,04,13,08,09,136.90
2010,04,13,08,10,152.10
2010,04,13,08,11,148.50
2010,04,13,08,12,139.70
2010,04,13,08,13,141.00
2010,04,13,08,14,146.50
2010,04,13,08,15,149.70
2010,04,13,08,16,152.90
2010,04,13,08,17,164.10
2010,04,13,08,18,171.20
2010,04,13,08,19,189.30
2010,04,13,08,20,191.70
2010,04,13,08,21,183.60
2010,04,13,08,22,174.00
2010,04,13,08,23,166.60
2010,04,13,08,24,162.70
2010,04,13,08,25,160.20
2010,04,13,08,26,159.00
2010,04,13,08,27,156.80
2010,04,13,08,28,158.00
2010,04,13,08,29,159.30
2010,04,13,08,30,161.70
2010,04,13,08,31,163.00
2010,04,13,08,32,163.00
2010,04,13,08,33,163.00
2010,04,13,08,34,162.50
2010,04,13,08,35,159.10
2010,04,13,08,36,156.30
2010,04,13,08,37,153.00
2010,04,13,08,38,152.50
2010,04,13,08,39,151.80
2010,04,13,08,40,154.20
2010,04,13,08,41,155.70
2010,04,13,08,42,157.70
2010,04,13,08,43,163.30
2010,04,13,08,44,165.60
2010,04,13,08,45,167.00
2010,04,13,08,46,168.10
2010,04,13,08,47,167.60
2010,04,13,08,48,165.20
2010,04,13,08,49,162.90
2010,04,13,08,50,162.00
2010,04,13,08,51,162.00
2010,04,13,08,52,162.60
2010,04,13,08,53,166.00
2010,04,13,08,54,168.80
2010,04,13,08,55,174.60
2010,04,13,08,56,178.90
2010,04,13,08,57,182.80
2010,04,13,08,58,185.00
2010,04,13,08,59,185.80
2010,04,13,09,00,186.10
2010,04,13,09,01,188.00
2010,04,13,09,02,188.00
2010,04,13,09,03,187.10
2010,04,13,09,04,185.40
2010,04,13,09,05,181.70
2010,04,13,09,06,179.00
2010,04,13,09,07,177.50
2010,04,13,09,08,176.00
2010,04,13,09,09,175.00
2010,04,13,09,10,174.00
2010,04,13,09,11,172.40
2010,04,13,09,12,171.00
2010,04,13,09,13,170.50
2010,04,13,09,14,168.30
2010,04,13,09,15,166.00
2010,04,13,09,16,165.00
2010,04,13,09,17,163.30
2010,04,13,09,18,161.80
2010,04,13,09,19,160.00
2010,04,13,09,20,159.20
2010,04,13,09,21,156.80
2010,04,13,09,22,156.00
2010,04,13,09,23,156.00
2010,04,13,09,24,156.00
2010,04,13,09,25,156.00
2010,04,13,09,26,156.90
2010,04,13,09,27,159.10
2010,04,13,09,28,161.50
2010,04,13,09,29,162.90
2010,04,13,09,30,167.40
2010,04,13,09,31,170.00
2010,04,13,09,32,173.00
2010,04,13,09,33,175.30
2010,04,13,09,34,177.50
2010,04,13,09,35,179.00
2010,04,13,09,36,181.40
2010,04,13,09,37,183.60
2010,04,13,09,38,185.00
2010,04,13,09,39,185.60
2010,04,13,09,40,186.00
2010,04,13,09,41,187.90
2010,04,13,09,42,190.30
2010,04,13,09,43,192.30
2010,04,13,09,44,194.90
2010,04,13,09,45,198.90
2010,04,13,09,46,203.10
2010,04,13,09,47,207.00
2010,04,13,09,48,209.90
2010,04,13,09,49,213.00
2010,04,13,09,50,213.50
2010,04,13,09,51,213.30
2010,04,13,09,52,211.40
2010,04,13,09,53,208.70
2010,04,13,09,54,205.50
2010,04,13,09,55,203.20
2010,04,13,09,56,201.00
2010,04,13,09,57,199.30
2010,04,13,09,58,199.00
2010,04,13,09,59,202.40
2010,04,13,10,00,207.40
2010,04,13,10,01,214.50
2010,04,13,10,02,225.10
2010,04,13,10,03,234.70
2010,04,13,10,04,242.80
2010,04,13,10,05,248.30
2010,04,13,10,06,250.30
2010,04,13,10,07,251.00
2010,04,13,10,08,253.40
2010,04,13,10,09,256.50
2010,04,13,10,10,257.00
2010,04,13,10,11,264.40
2010,04,13,10,12,268.50
2010,04,13,10,13,273.00
2010,04,13,10,14,274.00
2010,04,13,10,15,275.50
2010,04,13,10,16,274.30
2010,04,13,10,17,273.60
2010,04,13,10,18,272.00
2010,04,13,10,19,272.00
2010,04,13,10,20,273.30
2010,04,13,10,21,275.50
2010,04,13,10,22,277.90
2010,04,13,10,23,278.80
2010,04,13,10,24,281.00
2010,04,13,10,25,281.00
2010,04,13,10,26,279.80
2010,04,13,10,27,279.00
2010,04,13,10,28,281.00
2010,04,13,10,29,285.40
2010,04,13,10,30,287.00
2010,04,13,10,31,286.00
2010,04,13,10,32,285.00
2010,04,13,10,33,285.00
2010,04,13,10,34,282.80
2010,04,13,10,35,278.80
2010,04,13,10,36,277.20
2010,04,13,10,37,276.00
2010,04,13,10,38,274.60
2010,04,13,10,39,272.30
2010,04,13,10,40,271.90
2010,04,13,10,41,270.40
2010,04,13,10,42,268.20
2010,04,13,10,43,265.20
2010,04,13,10,44,262.50
2010,04,13,10,45,258.80
2010,04,13,10,46,257.90
2010,04,13,10,47,256.50
2010,04,13,10,48,255.00
2010,04,13,10,49,256.20
2010,04,13,10,50,257.00
2010,04,13,10,51,255.20
2010,04,13,10,52,253.00
2010,04,13,10,53,253.50
2010,04,13,10,54,256.30
2010,04,13,10,55,259.10
2010,04,13,10,56,263.60
2010,04,13,10,57,270.20
2010,04,13,10,58,272.00
2010,04,13,10,59,271.70
2010,04,13,11,00,268.40
2010,04,13,11,01,262.00
2010,04,13,11,02,256.30
2010,04,13,11,03,251.10
2010,04,13,11,04,249.60
2010,04,13,11,05,247.30
2010,04,13,11,06,248.10
2010,04,13,11,07,254.90
2010,04,13,11,08,258.00
2010,04,13,11,09,257.00
2010,04,13,11,10,256.50
2010,04,13,11,11,254.30
2010,04,13,11,12,252.00
2010,04,13,11,13,249.10
2010,04,13,11,14,246.40
2010,04,13,11,15,244.20
2010,04,13,11,16,246.50
2010,04,13,11,17,248.80
2010,04,13,11,18,251.60
2010,04,13,11,19,255.80
2010,04,13,11,20,261.20
2010,04,13,11,21,269.60
2010,04,13,11,22,277.90
2010,04,13,11,23,285.90
2010,04,13,11,24,293.80
2010,04,13,11,25,300.80
2010,04,13,11,26,307.20
2010,04,13,11,27,313.30
2010,04,13,11,28,318.50
2010,04,13,11,29,332.80
2010,04,13,11,30,366.60
2010,04,13,11,31,398.40
2010,04,13,11,32,457.80
2010,04,13,11,33,488.00
2010,04,13,11,34,506.30
2010,04,13,11,35,545.10
2010,04,13,11,36,526.30
2010,04,13,11,37,511.20
2010,04,13,11,38,490.70
2010,04,13,11,39,542.20
2010,04,13,11,40,551.70
2010,04,13,11,41,543.00
2010,04,13,11,42,563.30
2010,04,13,11,43,538.60
2010,04,13,11,44,497.50
2010,04,13,11,45,500.30
2010,04,13,11,46,514.00
2010,04,13,11,47,532.40
2010,04,13,11,48,564.40
2010,04,13,11,49,547.20
2010,04,13,11,50,540.70
2010,04,13,11,51,540.50
2010,04,13,11,52,545.50
2010,04,13,11,53,550.00
2010,04,13,11,54,550.00
2010,04,13,11,55,550.00
2010,04,13,11,56,550.00
2010,04,13,11,57,573.80
2010,04,13,11,58,665.00
2010,04,13,11,59,693.00
2010,04,13,12,00,738.90
2010,04,13,12,01,768.50
2010,04,13,12,02,770.00
2010,04,13,12,03,778.30
2010,04,13,12,04,776.60
2010,04,13,12,05,737.00
2010,04,13,12,06,654.80
2010,04,13,12,07,624.00
2010,04,13,12,08,624.00
2010,04,13,12,09,657.30
2010,04,13,12,10,721.10
2010,04,13,12,11,705.30
2010,04,13,12,12,728.20
2010,04,13,12,13,737.00
2010,04,13,12,14,826.00
2010,04,13,12,15,788.80
2010,04,13,12,16,799.10
2010,04,13,12,17,815.00
2010,04,13,12,18,771.90
2010,04,13,12,19,756.00
2010,04,13,12,20,808.40
2010,04,13,12,21,759.70
2010,04,13,12,22,701.50
2010,04,13,12,23,682.00
2010,04,13,12,24,682.00
2010,04,13,12,25,680.80
2010,04,13,12,26,665.10
2010,04,13,12,27,705.00
2010,04,13,12,28,705.00
2010,04,13,12,29,705.00
2010,04,13,12,30,1006.90
2010,04,13,12,31,1055.70
2010,04,13,12,32,1074.00
2010,04,13,12,33,1045.80
2010,04,13,12,34,1086.00
2010,04,13,12,35,1086.00
2010,04,13,12,36,1086.00
2010,04,13,12,37,584.00
2010,04,13,12,38,584.00
2010,04,13,12,39,765.90
2010,04,13,12,40,1069.00
2010,04,13,12,41,1177.50
2010,04,13,12,42,1219.30
2010,04,13,12,43,1220.00
2010,04,13,12,44,1220.00
2010,04,13,12,45,1216.60
2010,04,13,12,46,1174.70
2010,04,13,12,47,1185.40
2010,04,13,12,48,1201.00
2010,04,13,12,49,1200.70
2010,04,13,12,50,1199.00
2010,04,13,12,51,1090.30
2010,04,13,12,52,949.00
2010,04,13,12,53,715.60
2010,04,13,12,54,605.90
2010,04,13,12,55,577.30
2010,04,13,12,56,599.00
2010,04,13,12,57,599.00
2010,04,13,12,58,599.00
2010,04,13,12,59,844.00
2010,04,13,13,00,916.00
2010,04,13,13,01,916.00
2010,04,13,13,02,850.30
2010,04,13,13,03,719.00
2010,04,13,13,04,579.50
2010,04,13,13,05,443.60
2010,04,13,13,06,417.00
2010,04,13,13,07,412.20
2010,04,13,13,08,418.00
2010,04,13,13,09,421.00
2010,04,13,13,10,422.00
2010,04,13,13,11,417.90
2010,04,13,13,12,411.40
2010,04,13,13,13,408.00
2010,04,13,13,14,412.40
2010,04,13,13,15,429.50
2010,04,13,13,16,459.50
2010,04,13,13,17,516.50
2010,04,13,13,18,543.80
2010,04,13,13,19,730.30
2010,04,13,13,20,684.40
2010,04,13,13,21,672.80
2010,04,13,13,22,668.70
2010,04,13,13,23,666.00
2010,04,13,13,24,688.30
2010,04,13,13,25,678.80
2010,04,13,13,26,635.60
2010,04,13,13,27,635.00
2010,04,13,13,28,635.00
2010,04,13,13,29,857.20
2010,04,13,13,30,869.30
2010,04,13,13,31,694.70
2010,04,13,13,32,759.50
2010,04,13,13,33,806.80
2010,04,13,13,34,830.00
2010,04,13,13,35,830.00
2010,04,13,13,36,1177.20
2010,04,13,13,37,1162.90
2010,04,13,13,38,1106.80
2010,04,13,13,39,1055.00
2010,04,13,13,40,1055.00
2010,04,13,13,41,807.10
2010,04,13,13,42,715.10
2010,04,13,13,43,711.00
2010,04,13,13,44,666.30
2010,04,13,13,45,684.00
2010,04,13,13,46,718.50
2010,04,13,13,47,733.80
2010,04,13,13,48,791.20
2010,04,13,13,49,843.70
2010,04,13,13,50,860.00
2010,04,13,13,51,860.00
2010,04,13,13,52,800.10
2010,04,13,13,53,694.60
2010,04,13,13,54,629.00
2010,04,13,13,55,591.50
2010,04,13,13,56,558.60
2010,04,13,13,57,546.50
2010,04,13,13,58,557.70
2010,04,13,13,59,585.90
2010,04,13,14,00,608.10
2010,04,13,14,01,624.80
2010,04,13,14,02,681.10
2010,04,13,14,03,677.20
2010,04,13,14,04,607.70
2010,04,13,14,05,578.30
2010,04,13,14,06,589.90
2010,04,13,14,07,606.20
2010,04,13,14,08,687.00
2010,04,13,14,09,719.20
2010,04,13,14,10,691.70
2010,04,13,14,11,718.60
2010,04,13,14,12,737.80
2010,04,13,14,13,664.00
2010,04,13,14,14,635.90
2010,04,13,14,15,703.00
2010,04,13,14,16,726.00
2010,04,13,14,17,726.00
2010,04,13,14,18,739.40
2010,04,13,14,19,772.00
2010,04,13,14,20,772.00
2010,04,13,14,21,772.00
2010,04,13,14,22,575.80
2010,04,13,14,23,542.30
2010,04,13,14,24,522.30
2010,04,13,14,25,508.00
2010,04,13,14,26,533.50
2010,04,13,14,27,514.20
2010,04,13,14,28,489.10
2010,04,13,14,29,478.00
2010,04,13,14,30,482.00
2010,04,13,14,31,522.00
2010,04,13,14,32,539.70
2010,04,13,14,33,554.30
2010,04,13,14,34,585.80
2010,04,13,14,35,675.40
2010,04,13,14,36,949.70
2010,04,13,14,37,907.00
2010,04,13,14,38,907.00
2010,04,13,14,39,899.60
2010,04,13,14,40,951.50
2010,04,13,14,41,954.00
2010,04,13,14,42,781.00
2010,04,13,14,43,518.50
2010,04,13,14,44,508.00
2010,04,13,14,45,616.80
2010,04,13,14,46,666.90
2010,04,13,14,47,976.00
2010,04,13,14,48,976.00
2010,04,13,14,49,769.40
2010,04,13,14,50,617.90
2010,04,13,14,51,599.10
2010,04,13,14,52,602.60
2010,04,13,14,53,656.40
2010,04,13,14,54,615.00
2010,04,13,14,55,560.50
2010,04,13,14,56,521.10
2010,04,13,14,57,553.40
2010,04,13,14,58,571.10
2010,04,13,14,59,638.00
2010,04,13,15,00,587.10
2010,04,13,15,01,531.70
2010,04,13,15,02,536.00
2010,04,13,15,03,536.00
2010,04,13,15,04,749.00
2010,04,13,15,05,705.40
2010,04,13,15,06,619.70
2010,04,13,15,07,594.30
2010,04,13,15,08,515.10
2010,04,13,15,09,430.50
2010,04,13,15,10,395.30
2010,04,13,15,11,394.50
2010,04,13,15,12,415.50
2010,04,13,15,13,425.00
2010,04,13,15,14,425.00
2010,04,13,15,15,770.90
2010,04,13,15,16,796.20
2010,04,13,15,17,783.40
2010,04,13,15,18,742.00
2010,04,13,15,19,602.90
2010,04,13,15,20,500.40
2010,04,13,15,21,454.10
2010,04,13,15,22,460.10
2010,04,13,15,23,508.00
2010,04,13,15,24,627.40
2010,04,13,15,25,724.80
2010,04,13,15,26,732.30
2010,04,13,15,27,728.00
2010,04,13,15,28,717.70
2010,04,13,15,29,710.50
2010,04,13,15,30,705.00
2010,04,13,15,31,705.00
2010,04,13,15,32,705.00
2010,04,13,15,33,680.20
2010,04,13,15,34,659.40
2010,04,13,15,35,694.80
2010,04,13,15,36,698.40
2010,04,13,15,37,703.70
2010,04,13,15,38,700.50
2010,04,13,15,39,703.00
2010,04,13,15,40,697.70
2010,04,13,15,41,714.50
2010,04,13,15,42,716.10
2010,04,13,15,43,720.00
2010,04,13,15,44,722.00
2010,04,13,15,45,723.50
2010,04,13,15,46,719.60
2010,04,13,15,47,708.30
2010,04,13,15,48,688.70
2010,04,13,15,49,705.60
2010,04,13,15,50,715.70
2010,04,13,15,51,696.60
2010,04,13,15,52,674.30
2010,04,13,15,53,698.50
2010,04,13,15,54,717.60
2010,04,13,15,55,727.70
2010,04,13,15,56,639.30
2010,04,13,15,57,574.80
2010,04,13,15,58,335.10
2010,04,13,15,59,320.00
2010,04,13,16,00,344.10
2010,04,13,16,01,408.60
2010,04,13,16,02,496.50
2010,04,13,16,03,530.40
2010,04,13,16,04,662.80
2010,04,13,16,05,666.10
2010,04,13,16,06,626.10
2010,04,13,16,07,572.90
2010,04,13,16,08,535.10
2010,04,13,16,09,516.00
2010,04,13,16,10,503.60
2010,04,13,16,11,540.60
2010,04,13,16,12,546.00
2010,04,13,16,13,491.80
2010,04,13,16,14,474.50
2010,04,13,16,15,419.60
2010,04,13,16,16,382.50
2010,04,13,16,17,328.30
2010,04,13,16,18,308.70
2010,04,13,16,19,314.30
2010,04,13,16,20,339.00
2010,04,13,16,21,407.10
2010,04,13,16,22,431.00
2010,04,13,16,23,496.30
2010,04,13,16,24,498.60
2010,04,13,16,25,438.50
2010,04,13,16,26,442.50
2010,04,13,16,27,496.30
2010,04,13,16,28,561.00
2010,04,13,16,29,561.00
2010,04,13,16,30,561.00
2010,04,13,16,31,603.60
2010,04,13,16,32,619.30
2010,04,13,16,33,618.20
2010,04,13,16,34,610.50
2010,04,13,16,35,593.60
2010,04,13,16,36,582.60
2010,04,13,16,37,579.90
2010,04,13,16,38,575.50
2010,04,13,16,39,569.20
2010,04,13,16,40,565.90
2010,04,13,16,41,557.00
2010,04,13,16,42,548.50
2010,04,13,16,43,543.30
2010,04,13,16,44,545.70
2010,04,13,16,45,547.60
2010,04,13,16,46,548.60
2010,04,13,16,47,551.30
2010,04,13,16,48,550.30
2010,04,13,16,49,538.00
2010,04,13,16,50,447.30
2010,04,13,16,51,392.00
2010,04,13,16,52,356.40
2010,04,13,16,53,329.00
2010,04,13,16,54,456.20
2010,04,13,16,55,444.30
2010,04,13,16,56,383.00
2010,04,13,16,57,374.20
2010,04,13,16,58,328.90
2010,04,13,16,59,231.00
2010,04,13,17,00,280.50
2010,04,13,17,01,313.00
2010,04,13,17,02,358.90
2010,04,13,17,03,507.00
2010,04,13,17,04,538.70
2010,04,13,17,05,552.70
2010,04,13,17,06,560.50
2010,04,13,17,07,562.30
2010,04,13,17,08,557.40
2010,04,13,17,09,551.10
2010,04,13,17,10,543.70
2010,04,13,17,11,495.20